Hourly Data Report for October 04, 2017

All times are specified in Local Standard Time (LST). Add 1 hour to adjust for Daylight Saving Time where and when it is observed.

FISHER BRANCH (AUT)
MANITOBA

51°05'00.100" N
97°33'16.200" W
253.00 m
50309J6
71442
WSZ

Download Data

Hourly Data (October 2017)
Hourly Data Report for October 4, 2017
Temp Definition
°C
Dew Point Temp Definition
°C
Rel Hum Definition
%
Wind Dir Definition
10's deg

Wind Spd Definition
km/h
Visibility Definition
km
Stn Press Definition
kPa
Hmdx Definition


Wind Chill Definition


Weather Definition


TIME
00:00 3.3 2.5 95 26 6   98.91     LegendNANA
01:00 4.7 3.4 92 24 6   98.90     LegendNANA
02:00 4.6 3.9 95 25 10   98.93     LegendNANA
03:00 6.1 5.6 97 25 8   98.89     LegendNANA
04:00 7.1 6.4 95 27 13   98.91     LegendNANA
05:00 6.9 5.6 91 26 15   98.96     LegendNANA
06:00 6.5 5.1 91 25 15   98.93     LegendNANA
07:00 5.9 4.1 89 25 15   98.89     LegendNANA
08:00 6.4 3.9 84 24 20   98.90     LegendNANA
09:00 7.5 3.3 75 23 18   98.83     LegendNANA
10:00 9.8 2.2 59 25 27   98.76     LegendNANA
11:00 11.1 1.7 52 24 30   98.78     LegendNANA
12:00 11.6 1.4 50 26 28   98.76     LegendNANA
13:00 12.0 0.8 46 26 23   98.72     LegendNANA
14:00 12.7 0.4 43 26 25   98.70     LegendNANA
15:00 13.6 0.0 39 27 22   98.69     LegendNANA
16:00 13.0 -0.2 40 28 19   98.68     LegendNANA
17:00 12.6 0.4 43 28 12   98.69     LegendNANA
18:00 10.2 0.6 51 26 9   98.71     LegendNANA
19:00 6.8 0.5 64 27 5   98.76     LegendNANA
20:00 6.0 1.3 72 25 5   98.78     LegendNANA
21:00 7.4 2.2 70 29 7   98.79     LegendNANA
22:00 7.5 2.4 70 30 6   98.83     LegendNANA
23:00 6.5 2.5 76 29 6   98.84     LegendNANA

Notes on Data Quality.

Legend

  • E = Estimated
  • M = Missing
  • NA = Not Available
  • ‡ = Partner data that is not subject to review by the National Climate Archives
Date modified: